Location: Byszew
(52.1813°N, 19.2693°E)
Time: 01:36:23
(UTC+00:00)

Cosmos 1703 Rocket - Pass Details

Date: 03 March 2021
Orbit: 604 x 634 km, 82.5° (Epoch: 11 April)

Event Time Altitude Azimuth Distance (km) Brightness Sun altitude
Rises 17:08:39 0° 355° (N) 2,919 7.1 -7.3°
Reaches altitude 10° 17:11:07 10° 6° (N) 2,002 6.1 -7.7°
Maximum altitude 17:15:04 31° 69° (ENE) 1,090 4.3 -8.3°
Drops below altitude 10° 17:18:58 10° 132° (SE) 1,972 5.7 -8.9°
Sets 17:21:22 0° 143° (SE) 2,867 6.6 -9.2°
